Regional Weather Roundup
Issued by NWS

Home | Current Version | Previous Version | Text Only | Print | Product List | Glossary Off
Versions: 1 2 3 4 5 6 7 8 9 10 11 12 13 14 15 16 17 18 19 20 21 22 23 24 25 26 27 28 29 30 31 32 33 34 35 36 37 38 39 40 41 42 43 44 45 46 47 48 49 50

000
ASUS43 KLOT 261908
RWRIL

ILLINOIS REGIONAL WEATHER ROUNDUP
NATIONAL WEATHER SERVICE CHICAGO/ROMEOVILLE IL
200 PM CDT MON SEP 26 2016

NOTE: "FAIR" INDICATES FEW OR NO CLOUDS BELOW 12,000 FEET WITH NO
SIGNIFICANT WEATHER AND/OR OBSTRUCTIONS TO VISIBILITY.

* THESE STATIONS ARE NOT UNDER NWS QUALITY CONTROL. THEY ALSO MAY NOT
  REPORT WEATHER SUCH AS PRECIPITATION OR FOG.

ILZ001-002-007-009-015-016-024-262000-
NORTHWEST ILLINOIS

CITY           SKY/WX    TMP DP  RH WIND       PRES   REMARKS
MOLINE         SUNNY     71  33  24 W23G33    30.03F
STERLING*      SUNNY     69  37  30 W25G33    29.99F
SAVANNA*       SUNNY     68  35  29 W15G22    29.99F
$$

ILZ003-004-008-010-011-017-018-262000-
NORTH CENTRAL ILLINOIS

CITY           SKY/WX    TMP DP  RH WIND       PRES   REMARKS
ROCKFORD       MOSUNNY   68  38  33 W17G28    29.98F
FREEPORT*      SUNNY     65  36  34 W24       29.99F
ROCHELLE*      SUNNY     67  39  35 W22G31    29.99F
DE KALB*       SUNNY     67  39  36 W20G33    29.97F
$$

ILZ005-006-012>014-019>023-262000-
NORTHEAST ILLINOIS

CITY           SKY/WX    TMP DP  RH WIND       PRES   REMARKS
CHICAGO-OHARE  MOSUNNY   69  37  30 W23G31    29.93F
CHICAGO-MIDWAY MOSUNNY   70  33  25 W21G30    29.95F
AURORA         SUNNY     70  36  28 W23G36    29.96F
LANSING*       SUNNY     70  41  35 W22G32    29.96F
JOLIET*        SUNNY     71  37  28 W9G24     29.98F
WAUKEGAN       SUNNY     67  39  35 W15G24    29.90F
DUPAGE AIRPORT SUNNY     68  35  29 W21G31    29.95F
KANKAKEE*      SUNNY     71  33  25 W17G28    30.00F
WHEELING       SUNNY     68  34  28 W17G30    29.94F
MORRIS*        SUNNY     71  33  24 W20G30    29.97F
ROMEOVILLE*    SUNNY     70  42  36 W14G26    29.97F
NORTHERLY ISL    N/A     68  33  27 W15         N/A
$$

LMZ740>746-262000-
SOUTHERN LAKE MICHIGAN

STATION/POSITION SKY/WX   TEMP    WIND        PRES    VSBY  WAVE
                          AIR SEA DIR/SP/G                  HT/PER
                          (F)     (DEG/KT/KT) (MB)    (MI)  (FT/S)
SOUTHERN BUOY              64 71  240/ 23/ 29 1011.4F         4/ 5
WILMETTE HARBOR            65 63  300/ 17/ 25   N/A           4/ 3
HARRISON CRIB              65     250/ 28/ 32   N/A
BURNHAM HARBOR             69     290/  5/ 19   N/A
CALUMET HARBOR             67     240/ 13/ 23 1014.3F
BURNS HARBOR               66     270/ 19/ 25 1014.6F
MICHIGAN CITY              64     230/ 24/ 25   N/A
MICHIGAN CITY 6N           66 66  270/ 19/ 25   N/A           5/ 5
ST. JOSEPH                 65 65  260/ 17/ 21 1013.6F         7/ 5
$$

ILZ025>027-034>036-040-047-049-050-058-095>099-262000-
WEST-CENTRAL ILLINOIS

CITY           SKY/WX    TMP DP  RH WIND       PRES   REMARKS
QUINCY         SUNNY     71  36  27 W16G22    30.12F
GALESBURG*     SUNNY     70  35  27 W22G28    30.06F
MACOMB*        SUNNY     72  34  25 W12G24    30.10F
JACKSONVILLE*  SUNNY     73  33  23 W14G22    30.10F
PITTSFIELD*    SUNNY     73  37  27 W12       30.13F
$$

ILZ028>032-037-038-041>044-048-051>054-059>061-262000-
CENTRAL ILLINOIS

CITY           SKY/WX    TMP DP  RH WIND       PRES   REMARKS
PONTIAC        SUNNY     73  35  25 W18G26    30.02F
BLOOMINGTON    SUNNY     70  35  27 W15       30.05F
DECATUR        SUNNY     73  36  25 NW15G22   30.07F
PEORIA         SUNNY     71  33  24 W18G26    30.05F
LACON*         SUNNY     71  32  23 W17G30    30.02F
LINCOLN*       SUNNY     73  39  29 W7        30.06F
SPRINGFIELD    SUNNY     74  33  22 W16       30.09F
TAYLORVILLE    SUNNY     73  37  27 W9        30.09F
$$

ILZ033-039-045-046-055>057-062-063-262000-
EAST-CENTRAL ILLINOIS

CITY           SKY/WX    TMP DP  RH WIND       PRES   REMARKS
CHAMPAIGN      SUNNY     72  36  26 NW16G26   30.06F
RANTOUL*       SUNNY     73  37  26 W12G25    30.03F
MATTOON        SUNNY     73  35  25 W15G21    30.06F
PARIS*         SUNNY     73  40  30 W6        30.07F
$$

ILZ079-100>102-262000-
SOUTHWEST ILLINOIS

CITY           SKY/WX    TMP DP  RH WIND       PRES   REMARKS
BELLEVILLE     SUNNY     73  42  32 VRB7      30.11F
CAHOKIA*       SUNNY     74  39  28 NW10G16   30.13F
SPARTA*        SUNNY     71  48  44 NW7       30.14F
$$

ILZ064>066-069>071-074>076-080>082-084>086-088>090-092>094-262000-
SOUTH-CENTRAL ILLINOIS

CITY           SKY/WX    TMP DP  RH WIND       PRES   REMARKS
CARBONDALE     MOSUNNY   72  54  53 MISG      30.13F
CAIRO*         CLOUDY    71  54  54 N6        30.12F
EFFINGHAM*     SUNNY     73  45  37 W8G21     30.10F
MARION         MOSUNNY   72  50  46 NW9       30.13F
MT. VERNON     SUNNY     72  48  43 NW3       30.12F
CENTRALIA*     SUNNY     74  46  36 NW10G16   30.11F
SALEM*         SUNNY     73  40  29 NW14      30.11F
METROPOLIS*    CLOUDY    71  55  57 N3        30.12F
$$

ILZ067-068-072-073-078-083-087-091-262000-
SOUTHEAST ILLINOIS

CITY           SKY/WX    TMP DP  RH WIND       PRES   REMARKS
LAWRENCEVILLE  MOSUNNY   71  45  39 NW8G18    30.09F
FLORA*         PTSUNNY   73  47  39 W10G16    30.10F
FAIRFIELD*     SUNNY     71  48  44 W5        30.10F
HARRISBURG*    CLOUDY    70  54  56 NW5       30.12F
ROBINSON*      SUNNY     71  45  40 NW15G24   30.09F
CARMI*         CLOUDY    70  52  52 N5        30.10F
$$

ABBREVIATIONS USED IN REMARKS
   TC - TEMPERATURE IN CELSIUS
  WCI - WIND CHILL INDEX
   HX - HEAT INDEX
  VSB - VISIBILITY
$$




USA.gov is the U.S. government's official web portal to all federal, state and local government web resources and services.